Location: *
(46.1833°N, 22.7667°E)
Time: 03:25:44
(UTC+00:00)

YAOGAN 6 - Pass Details

Date: 17 September 2019
Orbit: 466 x 505 km, 97.0° (Epoch: 15 October)

Event Time Altitude Azimuth Distance (km) Brightness Sun altitude
Rises 16:59:15 0° 174° (S) 2,561 6.1 -4.6°
Reaches altitude 10° 17:01:19 10° 178° (S) 1,690 5.2 -5.0°
Maximum altitude 17:04:56 63° 260° (W) 564 3.2 -5.6°
Drops below altitude 10° 17:08:37 10° 342° (NNW) 1,721 5.8 -6.2°
Sets 17:10:44 0° 345° (NNW) 2,615 6.6 -6.6°
